Погода в Анциферовом

Россия / Новгородская область     58°57′56″N   34°00′38″E
темп.,
°C
ветер,
м/с
пор.,
м/с
влажн.,
%
обл.,
%
осадки,
мм/ч
давл.,
гПа
погр.,
м
20 апреля, вт
вт2000:00+3в31162100 0.0 1027352
03:00+1в3107448 0.0 1027283
06:00−1в39815 0.0 1026242
09:00+5вюв4954100 0.0 1025717
12:00+8вюв583929 0.0 10231559
15:00+8юв4753100 0.0 10211517
18:00+8вюв4857100 0.0 10201481
21:00+4вюв3108298 0.0 1019739
21 апреля, ср
ср2100:00+4вюв288593 0.0 1017595
03:00+2в3886100 0.0 1015416
06:00+2всв3997100 0.2 1011417
09:00+1св3899100 2.0 1008348
12:00+1всв3899100 2.9 1005334
15:00+2с1299100 4.1 1004152
18:00+2сз2599100 0.6 1003206
21:00+1з2698100 0.8 1004290
22 апреля, чт
чт2200:00+1зюз3798100 0.3 1005655
03:00+1зюз3898100 0.4 1006660
06:00+1юз1598100 0.0 1007264
09:00+4ю249294 0.0 1008372
12:00+9ю367357 0.0 1008941
15:00+12ююз455971 0.7 10081423
18:00+10ю367449 0.7 1009705
21:00+6ююв311934 1.1 1010267
23 апреля, пт
пт2300:00+5ююв3129384 0.0 1010340
03:00+4ююв299739 0.0 1009217
06:00+3юв2699100 0.0 1009155
09:00+6юв41196100 0.2 1008513
12:00+6юз3894100 0.7 1008703
15:00+4зюз3695100 1.5 1011614
18:00+4юз2588100 0.0 1012473
21:00+3юв2294100 0.1 101237
24 апреля, сб
сб2400:00+2ююв1196100 0.0 101123
03:00+2ю1298100 0.0 101058
06:00+2юв1398100 0.0 100998
09:00+5юв2284100 0.3 1009481
12:00+6ююз2379100 0.6 1008909
15:00+6зюз1271100 1.5 1008825
18:00+6юз2377100 1.1 1008416
21:00+3зюз2289100 1.7 100925